contact:dominique.lefevre@mio.osupytheas.fr, maurice.libes@osupytheas.fr, didier.mallarino@osupytheas.fr
Project:EMSO http://www.emso-fr.org/EMSO-France
Depth: 2436.0 m
Title:EMSO Ligure Ouest : Data MII capteur MICROCAT
DateTime_Computer,Latitude,Longitude,Temperature,Conductivity,Pressure,DateTime_Instrument
DateTime_Computer,Latitude,Longitude,degC,S m-1,dbar,DateTime_Instrument
2020-08-03T00:01:17Z,42.805,6.029,13.2981,4.60007,2470.077,2020-8-03T02:02:05Z
2020-08-03T00:04:20Z,42.805,6.029,13.2980,4.60023,2470.063,2020-8-03T02:05:09Z
2020-08-03T00:07:23Z,42.805,6.029,13.2977,4.60002,2470.063,2020-8-03T02:08:12Z
2020-08-03T00:10:27Z,42.805,6.029,13.2983,4.60020,2470.087,2020-8-03T02:11:15Z
2020-08-03T00:13:30Z,42.805,6.029,13.2990,4.60026,2470.063,2020-8-03T02:14:18Z
2020-08-03T00:16:33Z,42.805,6.029,13.2994,4.60011,2470.04,2020-8-03T02:17:21Z
2020-08-03T00:19:36Z,42.805,6.029,13.2977,4.59999,2470.063,2020-8-03T02:20:25Z
2020-08-03T00:22:40Z,42.805,6.029,13.2987,4.60012,2470.063,2020-8-03T02:23:28Z
2020-08-03T00:25:43Z,42.805,6.029,13.2976,4.60016,2470.04,2020-8-03T02:26:31Z
2020-08-03T00:28:46Z,42.805,6.029,13.2980,4.60009,2470.04,2020-8-03T02:29:34Z
2020-08-03T00:31:49Z,42.805,6.029,13.2983,4.59986,2470.017,2020-8-03T02:32:38Z
2020-08-03T00:34:53Z,42.805,6.029,13.2992,4.60007,2470.017,2020-8-03T02:35:41Z
2020-08-03T00:37:56Z,42.805,6.029,13.2988,4.60006,2470.04,2020-8-03T02:38:44Z
2020-08-03T00:40:59Z,42.805,6.029,13.2984,4.60021,2470.063,2020-8-03T02:41:47Z
2020-08-03T00:44:02Z,42.805,6.029,13.2981,4.60011,2470.03,2020-8-03T02:44:50Z
2020-08-03T00:47:05Z,42.805,6.029,13.2976,4.60006,2470.04,2020-8-03T02:47:54Z
2020-08-03T00:50:09Z,42.805,6.029,13.2982,4.60016,2470.04,2020-8-03T02:50:57Z
2020-08-03T00:53:12Z,42.805,6.029,13.2976,4.59992,2469.993,2020-8-03T02:54:00Z
2020-08-03T00:56:15Z,42.805,6.029,13.2982,4.60009,2470.017,2020-8-03T02:57:03Z
2020-08-03T00:59:18Z,42.805,6.029,13.2983,4.60008,2470.017,2020-8-03T03:00:07Z
2020-08-03T01:02:22Z,42.805,6.029,13.2981,4.60016,2470.017,2020-8-03T03:03:10Z
2020-08-03T01:05:25Z,42.805,6.029,13.2985,4.60013,2470.053,2020-8-03T03:06:13Z
2020-08-03T01:08:28Z,42.805,6.029,13.2985,4.59996,2470.017,2020-8-03T03:09:17Z
2020-08-03T01:11:32Z,42.805,6.029,13.2988,4.59991,2470.03,2020-8-03T03:12:20Z
2020-08-03T01:14:35Z,42.805,6.029,13.2985,4.60006,2470.077,2020-8-03T03:15:23Z
2020-08-03T01:17:38Z,42.805,6.029,13.2979,4.60002,2470.017,2020-8-03T03:18:26Z
2020-08-03T01:20:41Z,42.805,6.029,13.2983,4.59991,2470.03,2020-8-03T03:21:30Z
2020-08-03T01:23:45Z,42.805,6.029,13.2980,4.59999,2470.017,2020-8-03T03:24:33Z
2020-08-03T01:26:48Z,42.805,6.029,13.2976,4.59991,2469.97,2020-8-03T03:27:36Z
2020-08-03T01:29:51Z,42.805,6.029,13.2997,4.60009,2470.04,2020-8-03T03:30:39Z
2020-08-03T01:32:54Z,42.805,6.029,13.2979,4.59994,2469.993,2020-8-03T03:33:42Z
2020-08-03T01:35:57Z,42.805,6.029,13.2976,4.59999,2469.993,2020-8-03T03:36:46Z
2020-08-03T01:39:01Z,42.805,6.029,13.2986,4.60003,2470.053,2020-8-03T03:39:49Z
2020-08-03T01:42:04Z,42.805,6.029,13.2987,4.60002,2470.03,2020-8-03T03:42:52Z
2020-08-03T01:45:07Z,42.805,6.029,13.2983,4.60009,2470.017,2020-8-03T03:45:56Z
2020-08-03T01:48:10Z,42.805,6.029,13.2989,4.59999,2470.017,2020-8-03T03:48:59Z
2020-08-03T01:51:14Z,42.805,6.029,13.2979,4.59991,2470.007,2020-8-03T03:52:02Z
2020-08-03T01:54:17Z,42.805,6.029,13.2983,4.60020,2470.04,2020-8-03T03:55:05Z
2020-08-03T01:57:20Z,42.805,6.029,13.2987,4.60003,2470.017,2020-8-03T03:58:08Z
2020-08-03T02:00:23Z,42.805,6.029,13.2974,4.59993,2469.97,2020-8-03T04:01:12Z
2020-08-03T02:03:27Z,42.805,6.029,13.2988,4.59999,2470.053,2020-8-03T04:04:15Z
2020-08-03T02:06:30Z,42.805,6.029,13.2983,4.60000,2469.993,2020-8-03T04:07:18Z
2020-08-03T02:09:33Z,42.805,6.029,13.2985,4.59991,2470.03,2020-8-03T04:10:21Z
2020-08-03T02:12:37Z,42.805,6.029,13.2988,4.60010,2469.993,2020-8-03T04:13:25Z
2020-08-03T02:15:40Z,42.805,6.029,13.2970,4.59999,2470.007,2020-8-03T04:16:28Z
2020-08-03T02:18:43Z,42.805,6.029,13.2983,4.59999,2469.993,2020-8-03T04:19:31Z
2020-08-03T02:21:46Z,42.805,6.029,13.2981,4.60019,2469.993,2020-8-03T04:22:35Z
2020-08-03T02:24:49Z,42.805,6.029,13.2981,4.60012,2470.017,2020-8-03T04:25:38Z
2020-08-03T02:27:53Z,42.805,6.029,13.2979,4.60010,2470.007,2020-8-03T04:28:41Z
2020-08-03T02:30:56Z,42.805,6.029,13.2976,4.60002,2470.03,2020-8-03T04:31:44Z
2020-08-03T02:33:59Z,42.805,6.029,13.2983,4.60010,2470.017,2020-8-03T04:34:48Z
2020-08-03T02:37:03Z,42.805,6.029,13.2990,4.60016,2470.017,2020-8-03T04:37:51Z
2020-08-03T02:40:06Z,42.805,6.029,13.2984,4.59999,2470.03,2020-8-03T04:40:54Z
2020-08-03T02:43:09Z,42.805,6.029,13.2986,4.59994,2469.993,2020-8-03T04:43:57Z
2020-08-03T02:46:12Z,42.805,6.029,13.2980,4.60006,2470.03,2020-8-03T04:47:00Z
2020-08-03T02:49:15Z,42.805,6.029,13.2982,4.60004,2470.053,2020-8-03T04:50:04Z
2020-08-03T02:52:18Z,42.805,6.029,13.2984,4.60004,2470.04,2020-8-03T04:53:07Z
2020-08-03T02:55:22Z,42.805,6.029,13.2983,4.59999,2470.017,2020-8-03T04:56:10Z
2020-08-03T02:58:25Z,42.805,6.029,13.2979,4.59996,2470.03,2020-8-03T04:59:13Z
2020-08-03T03:01:28Z,42.805,6.029,13.2990,4.60009,2470.017,2020-8-03T05:02:16Z
2020-08-03T03:04:31Z,42.805,6.029,13.2978,4.60000,2470.053,2020-8-03T05:05:20Z
2020-08-03T03:07:34Z,42.805,6.029,13.2976,4.60010,2470.053,2020-8-03T05:08:23Z
2020-08-03T03:10:38Z,42.805,6.029,13.2981,4.60008,2470.04,2020-8-03T05:11:26Z
2020-08-03T03:13:41Z,42.805,6.029,13.2978,4.59996,2470.04,2020-8-03T05:14:29Z
2020-08-03T03:16:44Z,42.805,6.029,13.2976,4.59992,2470.03,2020-8-03T05:17:32Z
2020-08-03T03:19:47Z,42.805,6.029,13.2984,4.60016,2470.04,2020-8-03T05:20:36Z
2020-08-03T03:22:51Z,42.805,6.029,13.2985,4.60018,2470.03,2020-8-03T05:23:39Z
2020-08-03T03:25:54Z,42.805,6.029,13.2979,4.60009,2470.063,2020-8-03T05:26:42Z
2020-08-03T03:28:57Z,42.805,6.029,13.2980,4.59989,2470.04,2020-8-03T05:29:45Z
2020-08-03T03:32:00Z,42.805,6.029,13.2975,4.60013,2470.017,2020-8-03T05:32:49Z
2020-08-03T03:35:04Z,42.805,6.029,13.2979,4.60009,2470.053,2020-8-03T05:35:52Z
2020-08-03T03:38:07Z,42.805,6.029,13.2986,4.60001,2470.04,2020-8-03T05:38:55Z
2020-08-03T03:41:10Z,42.805,6.029,13.2976,4.59998,2470.04,2020-8-03T05:41:58Z
2020-08-03T03:44:13Z,42.805,6.029,13.2982,4.60002,2470.053,2020-8-03T05:45:01Z
2020-08-03T03:47:17Z,42.805,6.029,13.2978,4.59996,2470.053,2020-8-03T05:48:05Z
2020-08-03T03:50:20Z,42.805,6.029,13.2982,4.60006,2470.04,2020-8-03T05:51:08Z
2020-08-03T03:53:23Z,42.805,6.029,13.2976,4.59985,2470.063,2020-8-03T05:54:11Z
2020-08-03T03:56:26Z,42.805,6.029,13.2987,4.60009,2470.077,2020-8-03T05:57:15Z
2020-08-03T03:59:30Z,42.805,6.029,13.2990,4.59998,2470.077,2020-8-03T06:00:18Z
2020-08-03T04:02:33Z,42.805,6.029,13.2977,4.60005,2470.063,2020-8-03T06:03:21Z
2020-08-03T04:05:36Z,42.805,6.029,13.2979,4.60002,2470.04,2020-8-03T06:06:24Z
2020-08-03T04:08:39Z,42.805,6.029,13.2978,4.59995,2470.077,2020-8-03T06:09:27Z
2020-08-03T04:11:43Z,42.805,6.029,13.2979,4.60002,2470.077,2020-8-03T06:12:31Z
2020-08-03T04:14:46Z,42.805,6.029,13.2982,4.59988,2470.077,2020-8-03T06:15:34Z
2020-08-03T04:17:49Z,42.805,6.029,13.2981,4.60000,2470.1,2020-8-03T06:18:37Z
2020-08-03T04:20:52Z,42.805,6.029,13.2987,4.60019,2470.063,2020-8-03T06:21:41Z
2020-08-03T04:23:56Z,42.805,6.029,13.2981,4.60001,2470.1,2020-8-03T06:24:44Z
2020-08-03T04:26:59Z,42.805,6.029,13.2982,4.60011,2470.04,2020-8-03T06:27:47Z
2020-08-03T04:30:02Z,42.805,6.029,13.2979,4.59997,2470.063,2020-8-03T06:30:50Z
2020-08-03T04:33:05Z,42.805,6.029,13.2993,4.60014,2470.063,2020-8-03T06:33:53Z
2020-08-03T04:36:08Z,42.805,6.029,13.2987,4.60007,2470.053,2020-8-03T06:36:57Z
2020-08-03T04:39:12Z,42.805,6.029,13.2980,4.60007,2470.053,2020-8-03T06:40:00Z
2020-08-03T04:42:15Z,42.805,6.029,13.2985,4.60001,2470.063,2020-8-03T06:43:03Z
2020-08-03T04:45:18Z,42.805,6.029,13.2985,4.60000,2470.053,2020-8-03T06:46:06Z
2020-08-03T04:48:21Z,42.805,6.029,13.2982,4.60004,2470.063,2020-8-03T06:49:10Z
2020-08-03T04:51:25Z,42.805,6.029,13.2981,4.60010,2470.11,2020-8-03T06:52:13Z
2020-08-03T04:54:28Z,42.805,6.029,13.2976,4.59996,2470.124,2020-8-03T06:55:16Z
2020-08-03T04:57:31Z,42.805,6.029,13.2974,4.60001,2470.087,2020-8-03T06:58:19Z
2020-08-03T05:00:34Z,42.805,6.029,13.2983,4.59999,2470.119,2020-8-03T07:01:23Z
2020-08-03T05:03:38Z,42.805,6.029,13.2983,4.60010,2470.11,2020-8-03T07:04:26Z
2020-08-03T05:06:41Z,42.805,6.029,13.2984,4.60004,2470.124,2020-8-03T07:07:29Z
2020-08-03T05:09:44Z,42.805,6.029,13.2989,4.60010,2470.1,2020-8-03T07:10:33Z
2020-08-03T05:12:47Z,42.805,6.029,13.2979,4.59991,2470.124,2020-8-03T07:13:36Z
2020-08-03T05:15:51Z,42.805,6.029,13.2987,4.59998,2470.11,2020-8-03T07:16:39Z
2020-08-03T05:18:54Z,42.805,6.029,13.2983,4.60016,2470.11,2020-8-03T07:19:42Z
2020-08-03T05:21:57Z,42.805,6.029,13.2978,4.60004,2470.124,2020-8-03T07:22:46Z
2020-08-03T05:25:01Z,42.805,6.029,13.2987,4.60013,2470.1,2020-8-03T07:25:49Z
2020-08-03T05:28:04Z,42.805,6.029,13.2983,4.59996,2470.124,2020-8-03T07:28:52Z
2020-08-03T05:31:07Z,42.805,6.029,13.2982,4.60012,2470.133,2020-8-03T07:31:55Z
2020-08-03T05:34:10Z,42.805,6.029,13.2982,4.60003,2470.1,2020-8-03T07:34:59Z
2020-08-03T05:37:14Z,42.805,6.029,13.2976,4.59980,2470.087,2020-8-03T07:38:02Z
2020-08-03T05:40:17Z,42.805,6.029,13.2987,4.59999,2470.11,2020-8-03T07:41:05Z
2020-08-03T05:43:20Z,42.805,6.029,13.2983,4.60000,2470.11,2020-8-03T07:44:08Z
2020-08-03T05:46:23Z,42.805,6.029,13.2987,4.60016,2470.11,2020-8-03T07:47:11Z
2020-08-03T05:49:26Z,42.805,6.029,13.2991,4.60029,2470.133,2020-8-03T07:50:15Z
2020-08-03T05:52:30Z,42.805,6.029,13.2991,4.60011,2470.087,2020-8-03T07:53:18Z
2020-08-03T05:55:33Z,42.805,6.029,13.2980,4.60003,2470.147,2020-8-03T07:56:21Z
2020-08-03T05:58:36Z,42.805,6.029,13.2976,4.59991,2470.11,2020-8-03T07:59:24Z
2020-08-03T06:01:40Z,42.805,6.029,13.2984,4.60002,2470.18,2020-8-03T08:02:28Z
2020-08-03T06:04:43Z,42.805,6.029,13.2988,4.60002,2470.133,2020-8-03T08:05:31Z
2020-08-03T06:07:46Z,42.805,6.029,13.2983,4.60015,2470.11,2020-8-03T08:08:34Z
2020-08-03T06:10:49Z,42.805,6.029,13.2980,4.60006,2470.11,2020-8-03T08:11:37Z
2020-08-03T06:13:52Z,42.805,6.029,13.2981,4.60005,2470.147,2020-8-03T08:14:41Z
2020-08-03T06:16:56Z,42.805,6.029,13.2978,4.60004,2470.124,2020-8-03T08:17:44Z
2020-08-03T06:19:59Z,42.805,6.029,13.2984,4.60001,2470.11,2020-8-03T08:20:47Z
2020-08-03T06:23:02Z,42.805,6.029,13.2976,4.60007,2470.18,2020-8-03T08:23:50Z
2020-08-03T06:26:05Z,42.805,6.029,13.2978,4.60016,2470.147,2020-8-03T08:26:54Z
2020-08-03T06:29:09Z,42.805,6.029,13.2994,4.60038,2470.133,2020-8-03T08:29:57Z
2020-08-03T06:32:12Z,42.805,6.029,13.2979,4.60007,2470.133,2020-8-03T08:33:00Z
2020-08-03T06:35:15Z,42.805,6.029,13.2983,4.59997,2470.147,2020-8-03T08:36:03Z
2020-08-03T06:38:18Z,42.805,6.029,13.2985,4.60002,2470.147,2020-8-03T08:39:07Z
2020-08-03T06:41:22Z,42.805,6.029,13.2986,4.60017,2470.156,2020-8-03T08:42:10Z
2020-08-03T06:44:25Z,42.805,6.029,13.2981,4.60011,2470.156,2020-8-03T08:45:13Z
2020-08-03T06:47:28Z,42.805,6.029,13.2991,4.59997,2470.147,2020-8-03T08:48:16Z
2020-08-03T06:50:31Z,42.805,6.029,13.2980,4.59996,2470.147,2020-8-03T08:51:20Z
2020-08-03T06:53:34Z,42.805,6.029,13.2986,4.60010,2470.171,2020-8-03T08:54:23Z
2020-08-03T06:56:38Z,42.805,6.029,13.2979,4.60006,2470.147,2020-8-03T08:57:26Z
2020-08-03T06:59:41Z,42.805,6.029,13.2990,4.60009,2470.147,2020-8-03T09:00:29Z
2020-08-03T07:02:44Z,42.805,6.029,13.2986,4.60007,2470.147,2020-8-03T09:03:32Z
2020-08-03T07:05:47Z,42.805,6.029,13.2984,4.60005,2470.171,2020-8-03T09:06:36Z
2020-08-03T07:08:51Z,42.805,6.029,13.2976,4.60005,2470.156,2020-8-03T09:09:39Z
2020-08-03T07:11:54Z,42.805,6.029,13.2983,4.60009,2470.11,2020-8-03T09:12:42Z
2020-08-03T07:14:57Z,42.805,6.029,13.2987,4.60008,2470.1,2020-8-03T09:15:45Z
2020-08-03T07:18:00Z,42.805,6.029,13.2986,4.59999,2470.133,2020-8-03T09:18:48Z
2020-08-03T07:21:03Z,42.805,6.029,13.2980,4.59994,2470.133,2020-8-03T09:21:52Z
2020-08-03T07:24:07Z,42.805,6.029,13.2976,4.60001,2470.133,2020-8-03T09:24:55Z
2020-08-03T07:27:10Z,42.805,6.029,13.2986,4.60002,2470.171,2020-8-03T09:27:58Z
2020-08-03T07:30:13Z,42.805,6.029,13.2982,4.60015,2470.096,2020-8-03T09:31:01Z
2020-08-03T07:33:16Z,42.805,6.029,13.2986,4.60003,2470.11,2020-8-03T09:34:05Z
2020-08-03T07:36:20Z,42.805,6.029,13.2983,4.59994,2470.11,2020-8-03T09:37:08Z
2020-08-03T07:39:23Z,42.805,6.029,13.2980,4.59989,2470.133,2020-8-03T09:40:11Z
2020-08-03T07:42:26Z,42.805,6.029,13.2976,4.59995,2470.11,2020-8-03T09:43:14Z
2020-08-03T07:45:29Z,42.805,6.029,13.2982,4.60005,2470.133,2020-8-03T09:46:17Z
2020-08-03T07:48:32Z,42.805,6.029,13.2984,4.60003,2470.11,2020-8-03T09:49:21Z
2020-08-03T07:51:36Z,42.805,6.029,13.2982,4.59997,2470.124,2020-8-03T09:52:24Z
2020-08-03T07:54:39Z,42.805,6.029,13.2977,4.59991,2470.11,2020-8-03T09:55:27Z
2020-08-03T07:57:42Z,42.805,6.029,13.2985,4.60006,2470.133,2020-8-03T09:58:31Z
2020-08-03T08:00:46Z,42.805,6.029,13.2978,4.59995,2470.124,2020-8-03T10:01:34Z
2020-08-03T08:03:49Z,42.805,6.029,13.2986,4.60004,2470.133,2020-8-03T10:04:37Z
2020-08-03T08:06:52Z,42.805,6.029,13.2976,4.60003,2470.087,2020-8-03T10:07:40Z
2020-08-03T08:09:55Z,42.805,6.029,13.2985,4.60003,2470.133,2020-8-03T10:10:43Z
2020-08-03T08:12:58Z,42.805,6.029,13.2984,4.59999,2470.124,2020-8-03T10:13:47Z
2020-08-03T08:16:02Z,42.805,6.029,13.2982,4.60003,2470.11,2020-8-03T10:16:50Z
2020-08-03T08:19:05Z,42.805,6.029,13.2985,4.59998,2470.1,2020-8-03T10:19:53Z
2020-08-03T08:22:08Z,42.805,6.029,13.2983,4.59996,2470.147,2020-8-03T10:22:56Z
2020-08-03T08:25:11Z,42.805,6.029,13.2982,4.59996,2470.124,2020-8-03T10:26:00Z
2020-08-03T08:28:15Z,42.805,6.029,13.2983,4.60002,2470.1,2020-8-03T10:29:03Z
2020-08-03T08:31:18Z,42.805,6.029,13.2984,4.60009,2470.11,2020-8-03T10:32:06Z
2020-08-03T08:34:21Z,42.805,6.029,13.2981,4.60018,2470.11,2020-8-03T10:35:09Z
2020-08-03T08:37:24Z,42.805,6.029,13.2982,4.60007,2470.087,2020-8-03T10:38:13Z
2020-08-03T08:40:27Z,42.805,6.029,13.2989,4.60014,2470.1,2020-8-03T10:41:16Z
2020-08-03T08:43:31Z,42.805,6.029,13.2979,4.60007,2470.11,2020-8-03T10:44:19Z
2020-08-03T08:46:34Z,42.805,6.029,13.2986,4.60005,2470.087,2020-8-03T10:47:22Z
2020-08-03T08:49:37Z,42.805,6.029,13.2976,4.59999,2470.04,2020-8-03T10:50:26Z
2020-08-03T08:52:41Z,42.805,6.029,13.2982,4.60007,2470.077,2020-8-03T10:53:29Z
2020-08-03T08:55:44Z,42.805,6.029,13.2979,4.60011,2470.147,2020-8-03T10:56:32Z
2020-08-03T08:58:47Z,42.805,6.029,13.2985,4.60014,2470.133,2020-8-03T10:59:35Z
2020-08-03T09:01:50Z,42.805,6.029,13.2982,4.60006,2470.124,2020-8-03T11:02:39Z
2020-08-03T09:04:54Z,42.805,6.029,13.2983,4.59999,2470.1,2020-8-03T11:05:42Z
2020-08-03T09:07:57Z,42.805,6.029,13.2985,4.60000,2470.063,2020-8-03T11:08:46Z
2020-08-03T09:11:00Z,42.805,6.029,13.2979,4.60003,2470.087,2020-8-03T11:11:49Z
2020-08-03T09:14:04Z,42.805,6.029,13.2983,4.59994,2470.1,2020-8-03T11:14:52Z
2020-08-03T09:17:07Z,42.805,6.029,13.2977,4.59997,2470.087,2020-8-03T11:17:55Z
2020-08-03T09:20:10Z,42.805,6.029,13.2985,4.59996,2470.063,2020-8-03T11:20:58Z
2020-08-03T09:23:13Z,42.805,6.029,13.2978,4.60011,2470.087,2020-8-03T11:24:02Z
2020-08-03T09:26:17Z,42.805,6.029,13.2975,4.59991,2470.096,2020-8-03T11:27:05Z
2020-08-03T09:29:20Z,42.805,6.029,13.2985,4.59997,2470.11,2020-8-03T11:30:08Z
2020-08-03T09:32:23Z,42.805,6.029,13.2984,4.59995,2470.087,2020-8-03T11:33:11Z
2020-08-03T09:35:26Z,42.805,6.029,13.2986,4.60008,2470.063,2020-8-03T11:36:15Z
2020-08-03T09:38:30Z,42.805,6.029,13.2981,4.60029,2470.1,2020-8-03T11:39:18Z
2020-08-03T09:41:33Z,42.805,6.029,13.2983,4.59996,2470.063,2020-8-03T11:42:21Z
2020-08-03T09:44:36Z,42.805,6.029,13.2982,4.59994,2470.063,2020-8-03T11:45:24Z
2020-08-03T09:47:39Z,42.805,6.029,13.2976,4.59999,2470.04,2020-8-03T11:48:28Z
2020-08-03T09:50:43Z,42.805,6.029,13.2982,4.60006,2470.063,2020-8-03T11:51:31Z
2020-08-03T09:53:46Z,42.805,6.029,13.2981,4.60002,2470.1,2020-8-03T11:54:34Z
2020-08-03T09:56:49Z,42.805,6.029,13.2983,4.60011,2470.053,2020-8-03T11:57:37Z
2020-08-03T09:59:53Z,42.805,6.029,13.2990,4.60022,2470.063,2020-8-03T12:00:41Z
2020-08-03T10:02:56Z,42.805,6.029,13.2981,4.60007,2470.087,2020-8-03T12:03:44Z
2020-08-03T10:06:00Z,42.805,6.029,13.2979,4.60005,2470.063,2020-8-03T12:06:48Z
2020-08-03T10:09:03Z,42.805,6.029,13.2984,4.60003,2470.087,2020-8-03T12:09:51Z
2020-08-03T10:12:06Z,42.805,6.029,13.2982,4.60003,2470.053,2020-8-03T12:12:54Z
2020-08-03T10:15:09Z,42.805,6.029,13.2976,4.60020,2470.026,2020-8-03T12:15:58Z
2020-08-03T10:18:12Z,42.805,6.029,13.2982,4.60011,2470.087,2020-8-03T12:19:01Z
2020-08-03T10:21:16Z,42.805,6.029,13.2985,4.60005,2470.04,2020-8-03T12:22:04Z
2020-08-03T10:24:19Z,42.805,6.029,13.2986,4.60023,2470.04,2020-8-03T12:25:07Z
2020-08-03T10:27:22Z,42.805,6.029,13.2978,4.60003,2470.053,2020-8-03T12:28:11Z
2020-08-03T10:30:26Z,42.805,6.029,13.2978,4.60016,2470.04,2020-8-03T12:31:14Z
2020-08-03T10:33:29Z,42.805,6.029,13.2980,4.60011,2470.063,2020-8-03T12:34:17Z
2020-08-03T10:36:32Z,42.805,6.029,13.2984,4.60010,2470.04,2020-8-03T12:37:20Z
2020-08-03T10:39:35Z,42.805,6.029,13.2983,4.60024,2470.03,2020-8-03T12:40:24Z
2020-08-03T10:42:39Z,42.805,6.029,13.2980,4.60014,2470.063,2020-8-03T12:43:27Z
2020-08-03T10:45:42Z,42.805,6.029,13.2986,4.60005,2470.04,2020-8-03T12:46:30Z
2020-08-03T10:48:45Z,42.805,6.029,13.2983,4.60021,2470.053,2020-8-03T12:49:33Z
2020-08-03T10:51:48Z,42.805,6.029,13.2982,4.60008,2470.04,2020-8-03T12:52:37Z
2020-08-03T10:54:52Z,42.805,6.029,13.2986,4.60016,2470.053,2020-8-03T12:55:40Z
2020-08-03T10:57:55Z,42.805,6.029,13.2987,4.60029,2470.04,2020-8-03T12:58:43Z
2020-08-03T11:00:58Z,42.805,6.029,13.2990,4.60008,2470.053,2020-8-03T13:01:47Z
2020-08-03T11:04:02Z,42.805,6.029,13.2994,4.60011,2470.017,2020-8-03T13:04:50Z
2020-08-03T11:07:05Z,42.805,6.029,13.2979,4.60013,2470.03,2020-8-03T13:07:53Z
2020-08-03T11:10:08Z,42.805,6.029,13.2982,4.60001,2470.03,2020-8-03T13:10:56Z
2020-08-03T11:13:11Z,42.805,6.029,13.2990,4.60007,2470.007,2020-8-03T13:14:00Z
2020-08-03T11:16:15Z,42.805,6.029,13.2982,4.60018,2470.04,2020-8-03T13:17:03Z
2020-08-03T11:19:18Z,42.805,6.029,13.2991,4.60013,2469.97,2020-8-03T13:20:06Z
2020-08-03T11:22:21Z,42.805,6.029,13.2985,4.60008,2470.017,2020-8-03T13:23:09Z
2020-08-03T11:25:24Z,42.805,6.029,13.2986,4.60004,2470.03,2020-8-03T13:26:13Z
2020-08-03T11:28:28Z,42.805,6.029,13.2991,4.60014,2470.007,2020-8-03T13:29:16Z
2020-08-03T11:31:31Z,42.805,6.029,13.2990,4.60013,2470.03,2020-8-03T13:32:19Z
2020-08-03T11:34:34Z,42.805,6.029,13.2987,4.60003,2470.03,2020-8-03T13:35:22Z
2020-08-03T11:37:37Z,42.805,6.029,13.2980,4.60025,2469.993,2020-8-03T13:38:25Z
2020-08-03T11:40:40Z,42.805,6.029,13.2979,4.60010,2469.97,2020-8-03T13:41:29Z
2020-08-03T11:43:44Z,42.805,6.029,13.2982,4.60008,2470.017,2020-8-03T13:44:32Z
2020-08-03T11:46:47Z,42.805,6.029,13.2979,4.59991,2470.017,2020-8-03T13:47:35Z
2020-08-03T11:49:50Z,42.805,6.029,13.2976,4.60003,2469.96,2020-8-03T13:50:39Z
2020-08-03T11:52:54Z,42.805,6.029,13.2986,4.60031,2470.017,2020-8-03T13:53:42Z
2020-08-03T11:55:57Z,42.805,6.029,13.2976,4.60011,2469.984,2020-8-03T13:56:45Z
2020-08-03T11:59:00Z,42.805,6.029,13.2976,4.60014,2469.984,2020-8-03T13:59:48Z
2020-08-03T12:02:03Z,42.805,6.029,13.2975,4.60013,2469.993,2020-8-03T14:02:51Z
2020-08-03T12:05:06Z,42.805,6.029,13.2969,4.59999,2469.984,2020-8-03T14:05:55Z
2020-08-03T12:08:10Z,42.805,6.029,13.2974,4.59994,2469.97,2020-8-03T14:08:58Z
2020-08-03T12:11:13Z,42.805,6.029,13.2972,4.60001,2469.97,2020-8-03T14:12:01Z
2020-08-03T12:14:16Z,42.805,6.029,13.2977,4.59996,2469.947,2020-8-03T14:15:04Z
2020-08-03T12:17:19Z,42.805,6.029,13.2976,4.59999,2470.007,2020-8-03T14:18:07Z
2020-08-03T12:20:22Z,42.805,6.029,13.2976,4.60001,2469.97,2020-8-03T14:21:11Z
2020-08-03T12:23:26Z,42.805,6.029,13.2986,4.59996,2469.96,2020-8-03T14:24:14Z
2020-08-03T12:26:29Z,42.805,6.029,13.2983,4.59999,2469.984,2020-8-03T14:27:17Z
2020-08-03T12:29:32Z,42.805,6.029,13.2985,4.60024,2469.984,2020-8-03T14:30:20Z
2020-08-03T12:32:35Z,42.805,6.029,13.2981,4.60017,2469.993,2020-8-03T14:33:24Z
2020-08-03T12:35:39Z,42.805,6.029,13.2982,4.60011,2469.984,2020-8-03T14:36:27Z
2020-08-03T12:38:42Z,42.805,6.029,13.2986,4.60002,2469.984,2020-8-03T14:39:30Z
2020-08-03T12:41:45Z,42.805,6.029,13.2982,4.60029,2469.96,2020-8-03T14:42:33Z
2020-08-03T12:44:48Z,42.805,6.029,13.2993,4.60026,2469.96,2020-8-03T14:45:37Z
2020-08-03T12:47:52Z,42.805,6.029,13.2991,4.60010,2469.96,2020-8-03T14:48:40Z
2020-08-03T12:50:55Z,42.805,6.029,13.2983,4.60011,2469.97,2020-8-03T14:51:43Z
2020-08-03T12:53:58Z,42.805,6.029,13.2991,4.60019,2469.97,2020-8-03T14:54:46Z
2020-08-03T12:57:01Z,42.805,6.029,13.2992,4.60010,2469.993,2020-8-03T14:57:50Z
2020-08-03T13:00:04Z,42.805,6.029,13.2990,4.60017,2469.96,2020-8-03T15:00:53Z
2020-08-03T13:03:08Z,42.805,6.029,13.2978,4.60005,2469.984,2020-8-03T15:03:56Z
2020-08-03T13:06:11Z,42.805,6.029,13.2983,4.60005,2469.984,2020-8-03T15:06:59Z
2020-08-03T13:09:14Z,42.805,6.029,13.2986,4.60016,2469.984,2020-8-03T15:10:02Z
2020-08-03T13:12:17Z,42.805,6.029,13.2980,4.60005,2469.97,2020-8-03T15:13:06Z
2020-08-03T13:15:21Z,42.805,6.029,13.2982,4.59995,2469.984,2020-8-03T15:16:09Z
2020-08-03T13:18:24Z,42.805,6.029,13.2985,4.60011,2469.97,2020-8-03T15:19:12Z
2020-08-03T13:21:27Z,42.805,6.029,13.2979,4.60027,2469.923,2020-8-03T15:22:15Z
2020-08-03T13:24:30Z,42.805,6.029,13.2977,4.60001,2469.993,2020-8-03T15:25:18Z
2020-08-03T13:27:33Z,42.805,6.029,13.2982,4.59990,2469.947,2020-8-03T15:28:22Z
2020-08-03T13:30:37Z,42.805,6.029,13.2978,4.60009,2469.97,2020-8-03T15:31:25Z
2020-08-03T13:33:40Z,42.805,6.029,13.2981,4.60009,2469.97,2020-8-03T15:34:28Z
2020-08-03T13:36:43Z,42.805,6.029,13.2976,4.60003,2469.97,2020-8-03T15:37:31Z
2020-08-03T13:39:46Z,42.805,6.029,13.2984,4.60006,2470.017,2020-8-03T15:40:35Z
2020-08-03T13:42:50Z,42.805,6.029,13.2982,4.60001,2469.97,2020-8-03T15:43:38Z
2020-08-03T13:45:53Z,42.805,6.029,13.2979,4.60004,2469.993,2020-8-03T15:46:41Z
2020-08-03T13:48:56Z,42.805,6.029,13.2989,4.60016,2469.97,2020-8-03T15:49:44Z
2020-08-03T13:52:00Z,42.805,6.029,13.2981,4.60001,2469.97,2020-8-03T15:52:48Z
2020-08-03T13:55:03Z,42.805,6.029,13.2983,4.59998,2469.947,2020-8-03T15:55:51Z
2020-08-03T13:58:06Z,42.805,6.029,13.2981,4.60002,2469.97,2020-8-03T15:58:54Z
2020-08-03T14:01:09Z,42.805,6.029,13.2991,4.60010,2469.97,2020-8-03T16:01:58Z
2020-08-03T14:04:13Z,42.805,6.029,13.2979,4.60019,2469.97,2020-8-03T16:05:01Z
2020-08-03T14:07:16Z,42.805,6.029,13.2976,4.60013,2469.97,2020-8-03T16:08:04Z
2020-08-03T14:10:19Z,42.805,6.029,13.2984,4.60022,2469.984,2020-8-03T16:11:07Z
2020-08-03T14:13:22Z,42.805,6.029,13.2983,4.60019,2469.97,2020-8-03T16:14:10Z
2020-08-03T14:16:25Z,42.805,6.029,13.2992,4.60031,2469.947,2020-8-03T16:17:14Z
2020-08-03T14:19:29Z,42.805,6.029,13.2990,4.60019,2469.993,2020-8-03T16:20:17Z
2020-08-03T14:22:32Z,42.805,6.029,13.2996,4.60011,2470.017,2020-8-03T16:23:20Z
2020-08-03T14:25:35Z,42.805,6.029,13.2990,4.60027,2469.993,2020-8-03T16:26:24Z
2020-08-03T14:28:39Z,42.805,6.029,13.2991,4.60022,2469.97,2020-8-03T16:29:27Z
2020-08-03T14:31:42Z,42.805,6.029,13.2988,4.60021,2469.993,2020-8-03T16:32:30Z
2020-08-03T14:34:45Z,42.805,6.029,13.2976,4.60006,2469.97,2020-8-03T16:35:33Z
2020-08-03T14:37:48Z,42.805,6.029,13.2988,4.60016,2469.97,2020-8-03T16:38:36Z
2020-08-03T14:40:51Z,42.805,6.029,13.2982,4.60011,2470.017,2020-8-03T16:41:40Z
2020-08-03T14:43:55Z,42.805,6.029,13.2983,4.60041,2469.984,2020-8-03T16:44:43Z
2020-08-03T14:46:58Z,42.805,6.029,13.2986,4.60017,2469.97,2020-8-03T16:47:46Z
2020-08-03T14:50:01Z,42.805,6.029,13.2980,4.60014,2469.96,2020-8-03T16:50:49Z
2020-08-03T14:53:04Z,42.805,6.029,13.2981,4.60005,2469.993,2020-8-03T16:53:53Z
2020-08-03T14:56:08Z,42.805,6.029,13.2983,4.60015,2469.993,2020-8-03T16:56:56Z
2020-08-03T14:59:11Z,42.805,6.029,13.2979,4.60005,2470.003,2020-8-03T17:00:00Z
2020-08-03T15:02:14Z,42.805,6.029,13.2979,4.60017,2470.017,2020-8-03T17:03:03Z
2020-08-03T15:05:18Z,42.805,6.029,13.2983,4.60019,2469.947,2020-8-03T17:06:06Z
2020-08-03T15:08:21Z,42.805,6.029,13.2991,4.60016,2470.04,2020-8-03T17:09:09Z
2020-08-03T15:11:24Z,42.805,6.029,13.2995,4.59992,2469.993,2020-8-03T17:12:12Z
2020-08-03T15:14:27Z,42.805,6.029,13.2976,4.60001,2469.97,2020-8-03T17:15:16Z